Wind_Speed
15 15 15 15 15 15 15 15 14 14 12 11 10 9 8 7 7 6 5 4 4 3 3 2 3 3 4 4 4 5 5 6 6 7 7 8 9 9 9 9 9 10 10
14 14 14 14 14 15 14 14 14 14 13 12 11 10 9 8 7 6 6 5 5 4 4 4 4 4 5 5 5 6 6 7 7 8 8 8 9 9 8 9 9 10 12
12 12 12 13 13 14 14 14 14 14 14 13 12 11 9 8 8 7 7 6 5 5 4 4 5 5 6 6 7 7 7 7 8 8 9 9 9 9 10 11 11 12 12
11 11 11 12 12 12 13 13 14 13 13 13 12 11 10 9 8 8 7 7 7 6 6 5 5 6 7 7 8 9 9 9 9 9 9 10 10 11 11 12 12 13 14
8 9 10 10 10 11 12 13 13 14 14 13 12 11 10 10 9 8 8 7 7 7 7 7 6 6 7 8 8 9 9 9 10 10 11 11 11 12 13 13 13 14 14
5 6 8 8 9 10 11 12 12 13 14 13 13 12 11 10 10 9 9 8 8 8 8 8 8 8 8 8 9 9 9 10 10 11 12 12 12 12 13 13 14 14 14
4 5 6 7 7 8 9 10 11 12 13 13 13 12 11 10 10 10 10 9 9 9 10 9 9 9 9 9 9 10 11 11 11 12 12 12 12 13 13 14 14 14 14
2 3 4 5 6 7 8 9 10 11 12 12 12 12 11 10 10 10 10 10 10 10 10 11 10 10 10 10 10 11 11 11 11 12 12 12 12 13 13 14 15 15 14
2 2 3 4 4 6 6 7 9 10 11 12 12 12 11 10 10 10 11 11 11 11 12 12 12 12 11 11 10 10 11 11 11 12 12 12 13 13 14 14 14 14 14
4 3 3 4 5 6 5 7 8 9 10 11 12 12 12 12 11 11 11 12 13 13 13 13 13 12 12 11 11 11 11 12 12 12 13 13 14 14 14 14 14 14 14
7 5 5 5 5 6 5 6 7 8 9 10 10 11 12 12 12 12 12 13 13 13 14 14 13 13 13 12 12 12 12 12 12 13 13 14 14 14 14 14 14 14 14
10 8 6 7 7 6 6 6 7 8 9 10 10 10 11 12 12 13 13 13 13 13 14 14 14 14 14 14 13 13 13 13 13 13 14 14 14 14 14 14 13 13 14
12 11 9 9 8 9 9 9 9 9 10 10 11 11 11 12 13 13 13 14 14 14 14 15 15 15 15 15 14 14 14 14 14 14 14 14 15 15 14 14 14 13 13
13 13 12 11 10 11 11 11 11 11 11 11 12 12 12 13 13 14 14 14 15 15 15 15 15 16 16 15 15 15 15 15 15 15 15 15 15 15 15 15 14 14 14
17 15 15 14 13 13 13 13 13 13 13 13 14 14 14 14 14 15 15 16 16 16 16 16 16 16 17 16 15 15 15 15 15 16 16 16 15 15 15 15 15 15 15
18 17 17 16 14 14 14 15 15 15 15 15 15 15 15 16 16 17 17 17 17 18 18 18 18 18 18 17 17 16 17 17 17 16 15 15 15 15 15 15 15 15 15
20 19 18 18 17 17 17 17 18 18 18 17 17 17 17 18 18 19 18 18 18 19 19 19 19 18 18 18 18 18 18 18 17 16 15 15 14 14 14 15 14 14 15
22 21 21 22 21 20 20 20 21 21 20 20 20 20 20 20 20 20 20 20 20 20 21 20 20 20 20 20 19 19 19 19 18 16 15 15 15 14 14 15 15 16 16
24 24 23 23 23 23 23 23 23 23 23 23 23 23 23 22 22 22 22 21 21 22 23 22 22 22 23 22 21 20 20 19 17 16 16 16 16 15 16 16 16 17 18
27 27 26 26 27 27 26 26 26 27 26 26 26 26 25 25 24 23 24 24 24 24 24 24 24 24 24 22 22 21 20 20 18 18 17 16 17 17 18 18 18 18 18
30 30 30 30 30 30 30 30 30 29 29 29 28 28 28 27 27 26 25 26 26 25 26 26 26 25 24 24 24 23 22 21 20 19 18 18 18 19 19 20 20 20 20
33 33 34 33 32 32 33 32 32 31 31 31 30 29 29 29 28 28 28 28 28 28 27 27 27 27 26 25 25 25 24 23 22 22 21 20 20 20 21 21 22 22 22
34 35 35 35 34 34 34 33 33 33 32 32 31 31 30 30 30 30 30 29 29 29 29 29 29 28 29 28 27 26 26 25 25 24 23 23 23 23 23 23 23 23 24
36 35 35 35 35 35 34 34 34 33 33 32 32 32 32 32 31 30 30 30 30 30 30 30 30 30 30 29 28 28 28 27 26 25 25 25 26 26 26 25 25 25 25
36 36 36 37 36 35 35 34 34 34 34 33 33 33 33 31 31 31 32 32 32 31 31 32 31 31 30 30 29 29 28 28 28 27 27 27 27 28 27 27 27 26 26
37 37 37 36 37 36 35 34 35 34 34 33 33 32 32 32 32 32 32 32 33 33 33 33 32 32 31 32 31 30 30 30 29 29 28 28 29 29 29 28 27 27 27
Wind_Direction
46 49 50 51 52 53 55 58 59 58 55 53 52 51 49 45 42 41 38 28 13 355 332 308 287 285 293 295 293 296 295 290 287 285 284 284 285 292 291 290 289 288 289
43 46 49 51 52 51 51 52 53 51 48 46 45 45 43 40 38 36 30 21 8 353 336 324 309 297 293 295 291 294 294 290 286 284 285 288 289 288 291 289 291 290 291
41 43 47 49 49 48 48 48 47 46 43 41 39 37 36 33 32 28 23 18 10 4 351 334 322 311 301 295 294 289 288 288 288 288 287 290 294 292 290 291 291 290 288
38 40 43 46 47 46 45 44 43 41 40 38 35 33 32 28 24 18 15 13 9 3 353 341 330 318 309 305 302 299 290 288 285 286 287 288 289 290 293 294 293 292 291
38 41 40 42 44 44 42 40 39 37 34 32 32 29 29 27 23 18 14 11 7 1 352 341 330 324 316 310 308 308 302 296 292 288 286 289 290 289 291 292 293 291 292
37 37 38 37 39 39 39 38 35 33 31 29 27 25 25 24 21 17 14 11 6 360 353 342 335 329 323 314 309 308 305 304 301 296 293 292 293 294 293 294 295 295 295
17 26 26 29 30 32 33 32 29 28 26 24 22 19 18 17 16 12 9 7 2 359 354 345 339 335 329 319 313 309 307 302 303 300 300 298 297 294 293 294 295 295 295
9 19 11 15 17 18 20 22 22 20 18 18 17 14 12 12 12 12 10 5 0 354 350 347 343 337 330 324 318 313 309 306 306 304 303 302 300 299 297 297 295 294 294
303 341 345 352 352 355 2 4 7 9 9 10 9 8 9 9 8 6 5 360 356 353 349 345 341 338 332 325 321 318 313 310 309 305 305 304 302 300 299 299 298 295 291
279 288 304 311 323 329 338 344 348 352 357 2 6 9 8 7 6 2 359 355 351 351 348 343 342 339 337 329 322 317 316 313 308 303 304 303 300 299 297 297 296 293 289
282 290 295 292 297 307 313 327 331 335 341 344 349 355 357 358 357 353 351 348 348 350 351 350 346 343 339 333 326 319 315 312 308 304 302 300 300 299 298 297 296 296 293
266 267 276 283 288 293 292 299 309 316 323 329 336 342 345 345 344 344 343 342 343 342 343 343 343 341 338 332 325 319 314 310 306 304 302 299 298 299 301 300 298 297 295
266 261 263 275 282 285 285 286 293 301 312 315 319 325 329 331 332 334 335 335 335 336 337 337 338 336 334 332 328 323 317 312 308 305 302 299 297 297 300 300 299 298 297
257 263 267 275 275 281 286 285 287 295 304 308 310 310 313 318 322 324 325 326 327 327 328 330 331 329 328 328 325 321 318 315 311 309 305 301 297 296 297 297 296 296 297
267 268 270 271 271 280 286 286 286 291 297 299 302 304 305 309 313 315 316 317 320 320 321 323 323 324 325 325 324 322 320 316 311 309 305 301 298 296 295 296 295 295 295
267 264 275 280 276 280 282 284 286 288 291 294 296 299 301 302 304 306 308 310 312 314 317 317 318 319 320 320 320 320 321 319 315 312 309 302 298 297 297 296 294 294 295
267 269 275 280 279 277 277 279 285 287 291 291 291 293 295 296 296 299 302 304 305 307 310 311 313 312 314 318 319 320 319 319 318 316 313 311 307 304 303 300 299 298 296
269 273 277 278 275 273 275 277 278 282 285 286 288 290 292 296 297 300 299 303 302 304 304 308 309 312 312 311 313 315 316 317 318 316 314 311 310 309 306 302 300 299 297
270 272 273 274 273 273 274 276 278 280 281 282 283 285 287 291 293 296 296 298 302 304 304 306 308 308 309 305 305 308 310 313 314 315 315 313 311 308 305 303 302 300 298
269 271 271 272 272 272 273 274 276 279 279 278 279 281 283 285 287 290 293 296 299 301 303 304 304 305 307 306 305 305 304 307 309 309 309 309 309 308 305 304 303 301 300
265 266 267 270 271 271 272 274 276 276 276 274 275 277 279 280 283 285 288 292 294 296 297 299 299 301 302 304 305 303 301 302 302 304 304 303 303 304 304 303 301 300 301
263 265 266 268 269 270 272 274 274 273 273 271 273 274 275 277 281 282 285 287 289 292 294 295 296 297 298 299 301 300 299 299 300 300 300 300 300 300 301 300 298 297 297
264 266 267 269 269 270 271 272 273 272 271 271 273 273 274 276 279 280 282 284 286 289 290 292 293 293 294 295 296 296 296 296 297 297 296 297 297 296 296 297 296 295 296
264 265 267 268 270 270 270 271 271 272 272 271 271 272 275 277 278 278 280 282 284 285 287 289 291 291 292 292 292 294 294 293 294 294 295 295 295 296 295 293 293 293 293
264 266 267 268 269 270 270 270 271 271 271 272 271 273 273 274 276 277 278 279 280 283 284 286 288 289 290 289 290 292 292 290 290 290 292 294 295 294 293 292 290 290 291
265 267 268 268 268 269 270 269 269 270 271 272 272 270 272 274 275 276 276 277 279 281 282 283 284 286 287 288 288 289 290 288 287 288 289 291 292 291 291 290 290 289 289
Height
5922 5920 5919 5917 5916 5914 5912 5911 5909 5908 5907 5906 5905 5904 5904 5903 5902 5901 5900 5900 5899 5899 5898 5898 5898 5898 5897 5897 5897 5896 5895 5895 5894 5893 5892 5892 5891 5890 5889 5888 5887 5886 5885
5924 5922 5921 5919 5918 5916 5915 5913 5912 5910 5909 5907 5906 5905 5904 5903 5902 5902 5901 5900 5899 5898 5898 5898 5897 5897 5896 5896 5895 5895 5894 5893 5893 5892 5891 5890 5890 5888 5887 5886 5885 5884 5883
5925 5924 5922 5921 5919 5918 5916 5915 5913 5912 5910 5909 5907 5906 5905 5904 5903 5902 5901 5900 5899 5898 5898 5897 5896 5895 5895 5894 5893 5893 5892 5892 5891 5890 5889 5888 5887 5886 5885 5884 5883 5882 5880
5926 5925 5924 5922 5921 5920 5918 5917 5915 5913 5912 5910 5909 5907 5906 5904 5903 5902 5901 5900 5899 5898 5897 5896 5895 5894 5893 5893 5892 5891 5890 5889 5888 5887 5887 5886 5885 5884 5882 5881 5880 5879 5877
5927 5926 5925 5923 5922 5921 5920 5918 5916 5914 5912 5911 5909 5908 5906 5905 5904 5902 5901 5900 5899 5897 5896 5895 5894 5893 5892 5891 5890 5889 5888 5887 5886 5885 5884 5883 5882 5881 5880 5878 5877 5875 5874
5926 5926 5925 5924 5923 5922 5920 5919 5917 5916 5914 5912 5910 5908 5906 5905 5904 5902 5901 5899 5898 5897 5895 5894 5892 5891 5890 5889 5888 5887 5886 5885 5883 5882 5881 5879 5879 5878 5876 5875 5873 5872 5870
5926 5925 5925 5925 5923 5922 5921 5919 5918 5916 5914 5913 5911 5909 5907 5905 5904 5902 5901 5899 5897 5896 5894 5893 5891 5890 5888 5887 5886 5884 5883 5882 5881 5879 5878 5877 5875 5874 5873 5871 5870 5868 5867
5925 5924 5924 5924 5923 5922 5921 5920 5918 5917 5915 5913 5911 5909 5907 5905 5904 5902 5901 5899 5897 5896 5894 5892 5890 5888 5886 5885 5883 5882 5880 5879 5877 5876 5875 5873 5872 5871 5869 5868 5866 5864 5863
5923 5923 5923 5922 5922 5921 5921 5920 5918 5917 5915 5913 5911 5909 5907 5905 5903 5902 5900 5898 5897 5895 5893 5891 5889 5887 5884 5883 5881 5879 5878 5876 5875 5873 5872 5870 5869 5868 5866 5864 5862 5861 5859
5921 5921 5920 5920 5920 5920 5919 5918 5917 5916 5915 5913 5911 5909 5907 5905 5903 5901 5899 5898 5896 5894 5891 5889 5887 5885 5882 5880 5878 5877 5875 5873 5871 5870 5868 5867 5865 5864 5862 5860 5858 5857 5856
5918 5918 5918 5919 5918 5918 5917 5917 5916 5915 5914 5912 5910 5908 5906 5904 5902 5900 5898 5896 5894 5892 5889 5887 5885 5883 5880 5878 5876 5874 5872 5870 5868 5866 5865 5863 5862 5860 5858 5856 5854 5853 5851
5915 5915 5916 5916 5916 5916 5915 5915 5914 5913 5912 5910 5908 5907 5905 5903 5901 5899 5897 5894 5892 5890 5888 5886 5883 5881 5878 5876 5873 5871 5869 5867 5865 5863 5861 5859 5857 5856 5854 5852 5850 5849 5848
5912 5912 5912 5912 5913 5913 5912 5912 5911 5911 5910 5908 5907 5905 5903 5901 5899 5897 5895 5892 5890 5888 5886 5883 5881 5878 5876 5873 5870 5868 5865 5863 5861 5859 5857 5855 5853 5851 5850 5848 5846 5845 5843
5907 5908 5908 5909 5909 5909 5909 5908 5908 5907 5906 5905 5903 5902 5900 5898 5897 5894 5892 5890 5888 5886 5883 5881 5879 5876 5873 5870 5867 5864 5862 5859 5857 5855 5852 5851 5849 5847 5845 5844 5842 5841 5839
5903 5905 5905 5905 5904 5905 5905 5905 5905 5904 5903 5901 5900 5898 5896 5895 5894 5892 5890 5887 5885 5883 5880 5878 5876 5873 5870 5867 5864 5861 5858 5855 5853 5850 5848 5846 5844 5842 5841 5840 5838 5836 5835
5899 5900 5901 5901 5900 5901 5901 5901 5900 5899 5898 5897 5896 5895 5893 5892 5890 5888 5886 5884 5882 5879 5877 5875 5872 5870 5867 5864 5860 5857 5854 5851 5848 5846 5843 5841 5840 5838 5837 5835 5833 5832 5831
5894 5895 5896 5896 5896 5896 5896 5896 5896 5894 5893 5893 5892 5890 5889 5887 5885 5883 5882 5880 5878 5876 5873 5871 5869 5866 5863 5860 5857 5854 5851 5847 5845 5842 5840 5838 5836 5834 5832 5831 5829 5828 5826
5889 5890 5890 5890 5890 5890 5890 5890 5890 5889 5889 5888 5887 5885 5884 5882 5880 5879 5877 5875 5873 5871 5869 5866 5864 5861 5858 5856 5853 5850 5847 5844 5841 5838 5836 5834 5832 5831 5829 5827 5825 5823 5822
5883 5884 5884 5884 5885 5884 5884 5883 5883 5882 5882 5882 5881 5879 5878 5877 5875 5873 5871 5869 5868 5866 5864 5861 5859 5856 5854 5851 5848 5845 5843 5840 5837 5835 5832 5830 5828 5827 5825 5823 5821 5819 5817
5876 5876 5877 5877 5877 5877 5877 5876 5875 5875 5875 5874 5874 5873 5871 5870 5869 5868 5866 5864 5862 5860 5858 5856 5854 5851 5848 5845 5843 5840 5838 5836 5833 5830 5828 5826 5824 5822 5820 5818 5816 5814 5812
5868 5869 5869 5869 5869 5869 5869 5869 5868 5868 5867 5866 5866 5865 5864 5863 5862 5860 5859 5857 5856 5854 5852 5850 5848 5845 5842 5840 5837 5835 5832 5830 5828 5825 5823 5821 5819 5817 5815 5813 5811 5809 5807
5859 5860 5860 5860 5860 5860 5860 5860 5859 5859 5858 5857 5856 5856 5855 5855 5854 5853 5851 5850 5848 5847 5845 5843 5841 5838 5836 5833 5831 5829 5826 5824 5822 5819 5817 5815 5813 5811 5809 5807 5805 5803 5801
5850 5851 5851 5851 5851 5851 5851 5850 5850 5849 5849 5848 5848 5847 5846 5846 5845 5844 5843 5842 5841 5839 5837 5835 5833 5831 5829 5827 5825 5822 5820 5817 5815 5813 5811 5809 5807 5805 5803 5801 5799 5797 5795
5840 5841 5841 5842 5842 5842 5841 5841 5841 5840 5839 5838 5838 5838 5837 5837 5836 5835 5834 5833 5832 5831 5829 5827 5825 5823 5821 5819 5817 5815 5813 5810 5808 5806 5804 5802 5800 5798 5796 5794 5792 5790 5788
5830 5830 5831 5831 5831 5831 5831 5830 5830 5830 5830 5829 5828 5828 5827 5827 5826 5825 5824 5823 5823 5821 5820 5819 5817 5815 5813 5811 5809 5807 5805 5803 5800 5798 5796 5794 5792 5790 5788 5786 5784 5782 5780
5819 5819 5820 5820 5820 5821 5821 5820 5820 5820 5819 5819 5818 5818 5817 5817 5817 5816 5815 5814 5813 5812 5810 5809 5808 5806 5805 5803 5801 5799 5797 5795 5792 5790 5789 5787 5784 5782 5780 5778 5776 5774 5772